SCP
0 0 0 0 0 0 0 0 0 0 1 3 4 6 8 7 6 7 9 11 12 11 10 8 7 6 6 6 7 9 10 8 6 7 7 7 7 6 6 6 6 6 7 8
0 0 0 0 0 0 0 0 0 1 3 5 6 7 9 8 7 7 8 9 10 9 8 7 6 5 5 6 8 11 11 9 8 9 9 9 8 7 7 7 7 8 8 9
0 0 0 0 0 0 0 0 1 4 6 8 8 8 9 9 8 7 7 7 7 7 6 6 6 5 5 6 9 12 11 10 10 11 12 11 10 10 10 10 10 11 10 10
0 0 0 0 0 0 0 1 3 6 9 9 8 8 9 8 7 6 7 7 6 6 5 5 5 5 6 7 9 10 10 9 9 11 12 12 11 11 12 12 13 13 12 11
1 1 0 0 0 0 0 1 3 7 8 8 7 7 7 7 7 8 8 9 10 9 9 8 7 7 7 7 8 9 9 8 9 9 9 9 9 10 11 12 13 12 12 11
1 1 1 1 0 0 1 2 4 6 7 7 6 6 6 7 8 9 11 13 15 15 16 15 12 9 8 7 7 7 8 8 9 8 8 7 7 8 10 11 11 10 10 10
2 1 1 1 1 1 2 3 5 7 7 7 8 7 7 9 10 11 11 13 15 17 17 18 16 12 9 8 8 9 9 10 10 9 7 7 8 9 10 10 10 9 9 10
2 2 3 3 4 4 6 7 9 9 7 7 9 10 11 12 12 12 12 11 12 13 14 15 16 15 12 11 12 12 13 13 12 11 10 10 12 13 12 11 10 9 9 9
3 4 6 8 9 10 11 11 11 9 7 6 8 11 13 13 13 12 11 11 10 10 10 12 14 15 14 13 14 16 17 17 16 16 17 17 17 16 13 10 8 7 7 8
6 7 9 11 12 12 12 11 9 8 6 6 7 10 12 12 12 11 10 10 11 10 9 10 11 12 11 12 13 16 18 19 19 20 21 20 18 15 11 8 7 6 6 7
7 8 10 10 10 10 9 8 6 5 5 5 6 8 10 11 11 10 10 10 11 11 9 8 9 9 9 11 13 14 16 17 18 19 19 16 14 11 8 7 6 6 5 5
6 7 8 9 8 8 7 7 6 5 5 5 5 7 9 10 11 11 10 10 10 11 9 8 8 8 8 10 12 14 14 14 14 13 13 11 9 7 6 5 4 3 3 4
6 6 6 7 8 8 7 8 8 7 6 6 6 7 8 9 10 10 9 9 9 10 10 8 8 8 8 8 11 13 13 11 9 9 9 8 7 6 5 4 3 2 2 2
5 5 5 6 7 8 8 8 9 9 9 8 7 6 7 8 9 9 9 9 10 10 9 9 9 9 8 7 8 11 11 9 8 8 8 7 6 6 5 4 4 3 2 1
4 4 4 5 6 7 7 7 8 9 9 9 8 7 7 7 8 9 10 11 12 11 10 10 10 10 9 7 6 8 9 9 8 8 8 7 6 5 4 5 5 5 4 3
4 5 6 7 7 7 6 6 6 7 7 8 8 8 8 8 9 11 13 14 13 12 11 10 10 9 9 7 6 5 7 8 8 9 9 8 6 4 4 5 6 7 6 5
3 5 8 10 10 8 6 5 5 6 7 8 9 9 9 10 12 15 16 15 14 13 11 10 9 8 9 8 6 5 6 8 9 10 11 9 6 4 4 5 6 8 8 7
3 4 8 12 12 9 6 6 7 9 10 11 10 10 12 14 17 18 17 14 13 12 11 10 8 8 8 9 8 6 7 9 10 10 10 9 6 4 4 4 6 8 9 7
3 4 7 10 11 9 7 8 10 12 13 13 11 11 12 14 16 15 14 12 11 10 10 8 7 7 7 8 8 7 8 9 10 10 8 6 5 4 3 4 6 8 8 8
3 3 4 7 8 8 9 10 11 12 12 11 11 10 10 10 10 9 9 8 8 8 7 6 6 6 5 5 6 6 7 8 8 7 5 4 4 4 4 5 6 7 7 6
2 2 3 4 6 7 8 9 9 9 9 9 9 9 8 7 6 6 6 7 6 6 5 4 4 5 4 3 4 5 5 5 5 4 3 4 4 5 5 5 6 5 4 4
2 3 4 5 6 6 7 7 7 7 7 7 8 8 8 7 6 6 6 6 5 4 3 3 3 3 2 2 3 4 4 3 3 3 3 4 5 5 6 6 5 4 3 3
3 4 5 6 6 5 5 5 5 6 6 6 7 7 7 5 5 4 4 4 3 3 3 3 3 2 2 2 3 3 3 2 3 4 4 4 5 5 5 5 4 3 3 3
5 5 5 5 5 5 5 5 5 5 5 5 5 5 4 3 3 2 2 2 2 3 3 3 2 1 1 2 2 2 2 3 5 6 5 5 5 5 4 3 3 3 2 2
4 4 4 4 4 4 4 4 4 4 3 3 3 2 2 2 2 2 1 2 2 3 3 3 1 1 1 2 2 2 3 4 5 5 5 4 4 4 3 3 2 2 2 1
3 3 3 3 3 3 2 2 2 2 1 1 1 1 1 1 2 2 2 3 3 3 3 2 2 1 1 2 2 2 3 3 3 3 3 3 3 3 3 2 2 2 1 1
2 2 2 2 2 1 1 1 1 1 1 1 1 1 1 1 2 3 4 4 5 4 3 2 2 2 2 2 2 3 3 2 2 2 2 2 2 2 2 2 2 2 2 2
Wind_Speed
14 15 14 12 12 12 12 11 11 9 6 3 3 3 3 6 6 5 6 5 6 7 7 8 8 7 7 7 6 7 7 7 6 5 5 4 4 3 3 3 3 2 2 2
14 16 16 15 13 13 13 12 12 11 7 3 2 2 4 5 6 6 5 5 5 6 6 7 7 7 7 7 7 6 6 6 6 5 5 5 4 4 3 3 2 3 2 2
13 14 15 17 14 13 12 11 10 9 5 3 1 1 1 3 4 5 6 5 5 5 5 5 6 6 7 7 7 7 6 6 6 6 6 5 5 4 4 3 3 3 2 2
11 13 17 11 10 10 10 9 8 6 5 4 1 1 1 2 3 3 4 5 4 4 6 5 6 6 6 7 7 7 7 6 6 6 6 5 4 4 4 3 3 2 2 2
11 14 15 12 11 10 10 8 6 6 6 4 3 1 2 2 3 4 3 4 4 4 4 5 5 6 5 7 7 7 8 7 7 6 6 5 5 4 4 4 3 3 3 3
12 14 15 10 9 8 9 8 5 3 3 3 3 4 1 3 4 4 4 4 4 3 3 4 4 4 5 6 7 7 7 7 7 6 6 6 5 4 4 3 4 3 3 3
15 16 12 9 9 8 10 4 1 0 1 1 1 2 2 3 4 4 4 5 4 3 3 3 3 4 4 5 5 5 5 6 7 7 6 6 5 4 4 4 4 4 3 3
13 16 12 6 7 7 2 4 3 4 4 2 2 3 3 4 4 4 4 4 4 3 3 2 2 4 4 3 4 4 4 6 7 7 7 7 5 5 5 5 4 4 4 3
8 7 2 3 2 3 3 3 3 3 3 2 2 2 3 4 3 3 3 3 3 3 3 2 2 3 4 3 3 4 4 4 5 5 5 4 6 5 5 4 4 4 3 3
6 5 2 2 2 2 1 2 2 2 1 1 1 2 1 3 2 2 3 3 3 3 2 2 2 2 3 3 2 4 4 4 4 4 4 4 3 4 4 4 4 3 3 3
7 5 5 4 2 3 2 1 1 1 1 1 1 1 1 1 2 2 2 2 2 2 2 1 2 2 3 3 3 4 4 4 4 4 4 3 3 2 3 2 2 3 2 2
7 5 5 4 3 3 3 3 2 2 2 2 0 0 1 0 1 1 2 2 2 2 1 2 1 2 2 2 4 4 4 3 4 4 4 4 4 2 2 2 3 4 3 2
7 7 6 6 5 5 5 5 4 3 2 2 1 1 1 1 1 2 2 2 2 2 2 2 2 2 3 2 3 4 4 4 4 4 4 4 4 4 3 2 1 2 3 3
5 5 6 5 6 5 6 6 5 4 3 3 2 2 2 2 2 2 3 2 2 3 3 3 3 3 3 3 3 3 4 4 4 4 4 4 4 4 4 4 4 2 3 5
7 7 7 6 7 6 5 5 5 4 4 3 2 2 2 2 2 2 2 2 2 3 3 3 3 3 3 3 3 4 4 3 3 3 4 4 4 4 4 4 4 3 3 3
6 6 6 7 7 7 6 6 5 5 4 4 3 3 3 3 2 2 1 2 2 3 2 2 3 2 3 4 4 4 4 4 4 4 4 4 5 5 4 4 4 4 4 4
7 8 7 7 7 7 7 7 6 5 4 4 4 4 3 3 2 2 2 2 1 2 2 2 2 1 1 3 4 4 3 4 5 4 4 4 4 4 3 3 4 4 4 5
8 8 8 7 6 6 5 6 6 5 4 4 3 3 3 3 2 1 1 1 1 1 1 2 2 1 2 2 3 3 3 3 4 4 3 3 3 3 3 3 3 3 3 5
7 7 7 7 6 5 4 4 4 4 3 3 3 3 2 2 2 2 2 2 2 3 2 2 2 2 3 1 2 2 3 3 3 2 2 3 3 4 4 3 3 3 3 3
5 5 5 3 3 3 3 3 3 3 2 2 3 3 2 2 2 2 2 2 3 2 1 2 2 3 2 1 2 3 4 3 3 2 2 2 3 3 3 3 3 2 3 3
3 4 3 1 2 2 3 3 3 3 3 3 3 3 2 2 2 2 3 3 1 1 2 3 2 2 2 2 3 3 3 3 2 2 2 2 2 2 3 2 1 1 1 1
3 3 2 2 2 2 2 3 3 3 3 3 3 3 2 2 2 2 2 2 2 2 2 3 2 1 1 2 3 3 3 3 2 2 2 2 2 2 2 1 1 1 1 1
2 2 2 2 2 2 2 2 3 3 3 3 3 3 3 2 2 2 2 2 3 3 2 2 1 1 2 2 3 3 3 2 2 2 2 2 2 2 1 1 1 1 0 1
2 2 2 2 2 2 2 3 3 3 3 3 3 3 3 3 2 2 2 2 3 4 3 2 3 3 3 3 3 3 3 3 3 3 3 2 2 2 2 1 1 1 2 2
2 2 3 2 2 3 3 4 3 3 4 3 4 4 4 3 3 3 2 3 4 5 3 4 6 6 6 5 4 3 3 2 3 2 2 2 2 2 1 1 1 1 1 1
2 2 2 2 2 2 2 2 2 2 3 2 2 2 2 2 2 3 3 4 5 5 4 3 4 5 5 4 3 3 2 2 3 3 3 2 2 1 0 1 1 1 1 1
2 1 1 2 2 1 1 1 2 2 2 2 1 1 2 2 2 2 2 2 2 3 3 2 3 3 3 2 2 2 1 2 2 2 1 1 1 0 1 1 0 0 0 0
Wind_Direction
271 279 275 260 252 250 253 262 270 273 266 232 156 143 127 121 126 141 145 169 155 149 147 152 153 152 155 160 160 161 158 161 162 163 162 158 155 159 155 155 165 154 153 156
268 267 270 267 258 254 254 255 260 264 266 273 109 133 125 130 142 151 160 166 150 142 141 147 151 157 161 161 160 154 157 161 158 160 158 161 159 159 155 160 165 155 162 161
262 263 266 260 256 253 254 255 259 258 259 271 250 86 129 134 145 155 158 150 153 147 146 149 153 154 158 161 159 157 158 162 160 160 159 165 171 166 168 169 171 166 164 158
262 261 254 260 267 264 261 260 260 261 271 292 297 155 182 126 133 136 141 142 139 150 150 156 159 161 164 167 164 162 165 167 163 163 164 168 169 168 168 166 174 175 178 164
256 255 251 253 262 262 258 258 261 260 267 270 302 233 171 107 113 122 122 122 129 144 151 159 165 164 162 170 169 169 171 171 169 169 166 170 172 174 174 171 176 188 177 170
249 254 253 250 255 257 257 248 257 269 287 289 296 265 152 75 83 106 105 110 121 137 142 148 160 163 170 174 174 175 174 173 168 167 169 175 176 179 178 176 187 189 179 179
244 252 256 270 272 267 248 246 359 293 337 322 323 346 47 79 83 87 100 115 119 128 132 141 152 153 173 177 172 176 172 167 167 171 175 176 174 176 177 185 191 194 189 185
239 247 249 288 268 261 327 44 51 54 47 36 51 61 72 85 90 104 113 119 122 123 126 134 151 158 171 175 166 165 167 169 171 174 187 181 173 180 184 189 193 197 193 195
248 249 311 344 353 24 41 58 37 53 65 25 49 73 95 93 93 112 120 123 121 116 116 121 137 153 164 159 158 164 162 167 171 174 175 168 174 180 185 190 200 202 196 198
260 248 267 325 345 357 15 23 18 19 40 1 39 42 97 110 109 110 111 116 107 116 130 136 148 159 154 153 163 172 168 165 166 167 169 171 181 179 183 190 198 197 196 200
262 254 261 250 280 312 312 316 338 325 261 282 51 50 39 108 123 128 117 117 119 132 145 150 158 168 168 168 169 173 164 160 164 167 162 163 165 167 178 166 183 193 200 196
265 273 279 277 295 300 303 292 282 267 257 261 193 17 303 155 145 151 148 138 134 150 167 162 180 180 164 167 168 169 169 176 182 176 169 173 168 159 78 128 142 139 130 133
281 284 288 290 295 294 297 290 278 267 259 260 244 213 230 227 184 175 173 170 166 177 181 177 189 185 169 167 168 171 181 187 189 182 176 179 185 183 174 161 132 137 162 153
276 274 274 275 279 284 283 287 284 277 261 249 238 225 203 212 211 201 187 184 187 191 196 192 199 194 174 177 180 186 195 192 196 191 181 187 195 196 198 194 190 194 192 186
271 264 259 268 269 268 269 271 268 262 256 245 245 237 213 216 220 212 185 189 202 214 204 199 203 201 179 182 194 199 208 206 199 201 200 199 195 202 208 205 203 200 185 170
272 266 256 257 261 259 256 255 256 257 252 237 234 240 229 221 219 201 182 189 215 229 210 202 203 197 188 192 200 210 216 214 211 215 211 206 205 207 211 205 197 200 199 181
260 258 257 254 257 254 252 250 247 246 237 228 223 226 216 209 202 196 206 209 216 215 202 186 175 184 212 208 217 221 211 201 211 222 227 218 216 210 208 210 208 204 200 177
257 261 264 261 258 249 246 246 241 232 229 221 218 215 198 190 194 202 202 167 157 195 195 171 157 181 225 228 245 236 219 211 213 215 216 221 223 218 222 219 217 211 190 177
256 259 259 254 254 251 248 248 239 231 217 205 210 212 189 182 177 184 171 175 198 209 206 189 185 224 224 223 275 252 252 239 224 217 215 207 214 217 219 221 215 201 189 184
271 271 263 248 240 241 246 251 241 224 211 196 195 191 194 201 192 188 190 222 230 228 174 173 202 223 227 200 244 247 242 238 222 209 223 225 226 225 221 218 211 205 201 192
275 276 270 234 241 251 247 247 246 234 220 215 211 201 198 201 202 202 213 238 205 179 188 194 220 222 233 234 215 242 247 245 232 208 217 238 245 246 238 226 211 193 185 202
283 278 270 244 221 227 237 236 235 237 231 219 210 206 204 215 225 226 225 221 201 186 199 210 219 212 250 260 243 233 237 252 251 233 223 231 234 239 241 225 208 198 190 215
305 303 294 276 251 238 240 238 231 228 223 210 198 201 226 239 233 226 229 196 187 187 210 223 202 186 237 242 262 258 248 252 255 243 235 229 235 241 237 243 240 190 185 211
304 297 280 266 260 248 244 240 234 221 214 219 208 195 208 225 224 227 212 162 167 175 208 202 184 196 220 235 250 249 243 249 258 256 249 237 229 226 214 205 203 190 198 209
288 272 265 254 235 226 225 219 208 207 210 210 210 203 208 211 213 212 190 176 173 182 212 201 195 207 225 233 225 229 232 240 255 265 264 244 219 203 185 178 193 203 207 210
274 261 255 251 256 246 225 200 188 196 199 195 196 196 195 180 191 198 191 200 200 201 218 215 200 207 228 233 234 240 233 221 231 242 260 268 256 235 200 208 215 221 215 221
241 226 219 225 229 233 231 221 201 190 183 178 171 183 180 177 186 192 200 203 201 212 220 210 208 208 215 224 234 232 229 241 247 234 238 253 239 206 156 137 226 127 143 152